STARLINK-36424, 67419

Orbit data source: Space-Track

STARLINK-36424, 67419 is a payload satellite owned by SpaceX/Seattle (US) in LEO that was launched on Mon, 12 Jan 2026 UTC via an FALCON 9 launch vehicle from the Air Force Eastern Test Range (AFETR). Payload-class satellites include a variety of spacecraft equipped with specific instruments for various scientific and technological missions. These include communications satellites like Starlink; space stations such as the ISS; scientific satellites like the Hubble; Earth observation satellites from companies like Planet Labs, Umbra, and HawkEye 360; GPS; miniature CubeSats for education and research; and military/defense satellites.

Loading next visibility...
Identifier
67419, 2026-005R
Orbit
LEO
Country
Flag of USUS
Related business
Manufacturer
SpaceX/Seattle
Mission
Operational Commercial Communications
Bus & Motor
STARLINK V2MO, Unknown motor
Mass
575 kg wet, ~530 kg dry
Launch date (UTC)
2026-01-12 (5 months ago)
Launch vehicle
FALCON 9
Launch site
Air Force Eastern Test Range (AFETR)
Object type
Payload
Rocket body
Debris
Shape & HBR
Box + 2 Pan, 17.7 m
Radar Cross Section
36.964 m², Large (>1 m²)

Expand to show TLE details & history
Last TLE update: 21 hours ago

TLE from 21 hours ago
0 STARLINK-36424
1 67419U 26005R   26170.98531405  .00014748  00000-0  54400-3 0  9991
2 67419  43.0033  20.0646 0001277 283.9562  76.1148 15.27604125 24345
Epoch: 2026-06-19T23:38Z
TLE epoch observation values (Epoch: 2026-06-19T23:38:51.133Z)
Latitude
-0.00001°
Longitude
117.1451°
Altitude
482.543 km
Speed
7.626 km/s
True Right ascension
01h 20m 15s
True Declination
0° 00' 00"
Sunlit
Object was in daylight at epoch
Visualization orbit readout
Latitude
Unknown
Longitude
Unknown
Altitude
Unknown
Speed
Unknown
Apparent Right ascension
Unknown
Apparent Declination
Unknown
Sunlit
N/A
Visualization observer readout
Local Sidereal Time
07:14:28
Azimuth
Unknown
Elevation
Unknown
Doppler factor
Unknown
Orbital elements
Apogee altitude
485.798 km
Perigee altitude
484.045 km
Semi-major axis
6,863.058 km
Eccentricity
0.00013
Inclination
43.0033°
RAAN
20.0646°
Arg. of periapsis
283.9562°
True anomaly
76.12901°
Mean anomaly
76.1148°
Eccentric anomaly
76.1219°
Mean motion
3.81739 °/min
Orbital period
94.31 mins
BSTAR
0.000544
Loading maneuver chart data...
Computing Atmospheric mass density...
Loading historical data...
Loading historical data...
Loading historical data...
Loading historical data...
Loading historical data...
Loading historical data...
Loading historical data...

Documentation

Showing up to 5 results
|